Location: Caltech
(34.1382°N, 118.1253°W)
Time: 16:21:13
(UTC-07:00)

Courier 1B - Visible Passes

Search period start: 26 April 2017 00:00
Search period end: 06 May 2017 00:00
Orbit: 963 x 1209 km, 28.3° (Epoch: 25 April)

Date Brightness Start Highest point End Pass type
(mag) Time Alt. Az. Time Alt. Az. Time Alt. Az.
26 Apr 9.8 02:04:58 17° ESE 02:04:58 17° ESE 02:06:34 10° E visible
26 Apr 8.0 03:51:51 50° SW 03:53:06 55° S 04:00:43 10° ESE visible
26 Apr 8.6 05:40:01 10° W 05:47:03 36° SSW 05:53:57 10° SE visible
27 Apr 8.5 03:01:28 43° SE 03:01:28 43° SE 03:06:52 10° ESE visible
27 Apr 8.4 04:48:22 21° WSW 04:53:13 42° SSW 05:00:28 10° SE visible
28 Apr 9.7 02:11:10 18° ESE 02:11:10 18° ESE 02:12:56 10° ESE visible
28 Apr 8.1 03:58:05 44° SW 03:59:21 48° SSW 04:06:50 10° ESE visible
29 Apr 8.6 03:07:54 39° SE 03:07:54 39° SE 03:13:03 10° ESE visible
29 Apr 8.7 04:54:49 18° WSW 04:59:21 32° SSW 05:06:04 10° SE visible
30 Apr 9.8 02:17:52 16° ESE 02:17:52 16° ESE 02:19:11 10° ESE visible
30 Apr 8.3 04:04:48 37° SSW 04:05:33 37° SSW 04:12:38 10° SE visible
30 Apr 9.2 21:25:23 10° SSW 21:27:45 17° S 21:27:45 17° S visible
01 May 8.9 03:14:55 30° SSE 03:14:55 30° SSE 03:19:02 10° SE visible
01 May 9.1 05:01:51 16° WSW 05:05:25 21° SSW 05:11:00 10° SSE visible
01 May 9.1 20:33:01 10° S 20:36:47 16° SSE 20:38:16 15° SE visible
01 May 9.4 22:23:48 10° SW 22:25:14 16° SW 22:25:14 16° SW visible
02 May 10.1 02:25:11 10° ESE 02:25:11 10° ESE 02:25:18 10° ESE visible
02 May 8.8 04:12:07 27° SSW 04:12:07 27° SSW 04:17:57 10° SSE visible
02 May 8.4 21:30:36 10° SW 21:35:39 30° S 21:35:39 30° S visible
03 May 9.5 03:22:32 18° SSE 03:22:32 18° SSE 03:24:37 10° SE visible
03 May 9.4 05:09:29 11° SW 05:11:25 12° SSW 05:14:23 10° S visible
03 May 8.6 20:37:36 10° SSW 20:42:51 25° SSE 20:45:57 18° ESE visible
03 May 8.9 22:29:48 10° WSW 22:32:54 27° SW 22:32:54 27° SW visible
04 May 9.5 04:20:00 15° S 04:20:00 15° S 04:22:23 10° S visible
04 May 8.0 21:36:24 10° SW 21:42:38 41° SSE 21:43:04 41° SSE visible
04 May 9.9 23:29:39 10° WSW 23:30:00 12° WSW 23:30:00 12° WSW visible
05 May 8.2 20:43:06 10° SW 20:49:00 35° SSE 20:53:05 19° ESE visible
05 May 8.5 22:36:04 10° WSW 22:40:01 35° SW 22:40:01 35° SW visible
